This demonstration page uses our WeatherBlox Daily Observations layout. Learn more.

Left ArrowRight Arrow

Hourly Observations for September 5, 2018

Temp ( °F °C ) Dew Point ( °F °C ) Humidity (%) Winds ( mph kmh ) Pressure ( in mb ) Visibility ( mi km ) Precip ( " mm )
12:07 am 00:07 Cloudy with Light Rain 66 19 64 18 94 94 N 3 6 30.00 1016 10 16 0.00 0.00
12:57 am 00:57 Cloudy 67 19.4 65 18.3 93 93 N 7 11 30.03 1017 10 16 0.01 0.25
1:32 am 01:32 Cloudy 66 19 64 18 94 94 NNW 7 11 30.03 1017 10 16 0.00 0.00
1:48 am 01:48 Cloudy with Light Rain 66 19 66 19 100 100 NNW 6 9 30.03 1017 10 16 0.00 0.03
1:57 am 01:57 Cloudy with Light Rain 66 18.9 65 18.3 96 96 NNW 10 17 30.04 1017 9 14 0.00 0.03
2:25 am 02:25 Cloudy with Light Rain 64 18 64 18 100 100 NNW 6 9 30.03 1017 5 8 0.00 0.00
2:51 am 02:51 Cloudy with Light Rain 64 18 64 18 100 100 NNW 7 11 30.03 1017 6 10 0.02 0.51
2:57 am 02:57 Cloudy with Light Rain 65 18.3 64 17.8 97 97 NNW 6 9 30.05 1018 7 11 0.02 0.51
3:16 am 03:16 Cloudy with Light Rain 64 18 64 18 100 100 NNW 5 7 30.03 1017 4 6 0.00 0.03
3:43 am 03:43 Cloudy with Light Rain 64 18 64 18 100 100 NNW 6 9 30.03 1017 3 4 0.00 0.00
3:55 am 03:55 Cloudy with Light Rain 64 18 64 18 100 100 NNW 6 9 30.03 1017 5 8 0.00 0.00
3:57 am 03:57 Cloudy with Light Rain 65 18.3 65 18.3 100 100 NNW 7 11 30.04 1017 5 8 0.01 0.25
4:44 am 04:44 Cloudy with Light Rain 64 18 64 18 100 100 N 10 17 30.03 1017 3 4 0.01 0.25
4:54 am 04:54 Cloudy with Light Rain 64 18 64 18 100 100 N 12 19 30.03 1017 3 5 0.02 0.51
4:57 am 04:57 Cloudy with Light Rain 65 18.3 64 17.8 97 97 N 10 17 30.05 1018 4 6 0.02 0.51
5:57 am 05:57 Cloudy with Light Rain 65 18.3 64 17.8 97 97 N 13 20 30.06 1018 6 10 0.07 1.78
6:57 am 06:57 Cloudy with Light Rain 65 18.3 64 17.8 97 97 N 13 20 30.09 1019 5 8 0.01 0.25
7:33 am 07:33 Cloudy with Light Rain 64 18 64 18 100 100 NNE 12 19 30.09 1019 10 16 0.00 0.00
7:57 am 07:57 Cloudy with Light Rain 65 18.3 64 17.8 97 97 NNE 13 20 30.11 1020 10 16 0.00 0.03
8:04 am 08:04 Cloudy with Light Rain 66 19 64 18 94 94 NNE 10 17 30.09 1019 10 16 0.00 0.03
8:57 am 08:57 Cloudy 66 18.9 64 17.8 93 93 N 18 30 30.14 1021 10 16 0.00 0.03
9:57 am 09:57 Cloudy 64 17.8 62 16.7 93 93 N 18 30 30.17 1022 10 16 0.00 0.00
10:57 am 10:57 Cloudy 63 17.2 61 16.1 93 93 N 17 28 30.19 1022 10 16 0.00 0.00
11:57 am 11:57 Cloudy 65 18.3 62 16.7 90 90 N 15 24 30.20 1023 10 16 0.00 0.00
12:29 pm 12:29 Cloudy 66 19 63 17 88 88 N 14 22 30.18 1022 10 16 0.00 0.00
12:57 pm 12:57 Cloudy 68 20 63 17.2 84 84 N 13 20 30.21 1023 10 16 0.00 0.00
1:49 pm 13:49 Cloudy 70 21 63 17 78 78 N 12 19 30.18 1022 10 16 0.00 0.00
1:57 pm 13:57 Cloudy 70 21.1 63 17.2 79 79 N 15 24 30.21 1023 10 16 0.00 0.00
2:57 pm 14:57 Cloudy 69 20.6 63 17.2 81 81 NNE 14 22 30.20 1023 10 16 0.00 0.00
3:57 pm 15:57 Cloudy 71 21.7 63 17.2 76 76 N 16 26 30.19 1023 10 16 0.00 0.00
4:57 pm 16:57 Mostly Cloudy 73 22.8 63 17.2 71 71 NNE 17 28 30.19 1022 10 16 0.00 0.00
5:57 pm 17:57 Mostly Cloudy 73 22.8 64 17.8 74 74 NNE 16 26 30.20 1023 10 16 0.00 0.00
6:57 pm 18:57 Mostly Cloudy 70 21.1 63 17.2 79 79 NNE 16 26 30.22 1023 10 16 0.00 0.00
7:57 pm 19:57 Cloudy 66 18.9 62 16.7 87 87 NE 12 19 30.25 1024 10 16 0.00 0.00
8:26 pm 20:26 Cloudy 66 19 63 17 88 88 NE 14 22 30.21 1023 10 16 0.00 0.00
8:57 pm 20:57 Cloudy 65 18.3 61 16.1 87 87 NE 10 17 30.27 1025 10 16 0.00 0.00
9:57 pm 21:57 Cloudy 64 17.8 61 16.1 90 90 NNE 13 20 30.30 1026 10 16 0.00 0.00
10:57 pm 22:57 Cloudy 64 17.8 61 16.1 90 90 NNE 13 20 30.30 1026 10 16 0.00 0.00
11:43 pm 23:43 Cloudy 64 18 63 17 94 94 NNE 13 20 30.27 1025 10 16 0.00 0.00
11:57 pm 23:57 Cloudy 63 17.2 62 16.7 97 97 NNE 13 20 30.30 1026 10 16 0.00 0.00

Powered by AerisWeather